Regional Weather Roundup
Issued by NWS

Home | Current Version | Previous Version | Graphics & Text | Print | Product List | Glossary On
Versions: 1 2 3 4 5 6 7 8 9 10 11 12 13 14 15 16 17 18 19 20 21 22 23 24 25 26 27
000
ASUS45 KTFX 221610
RWRMT
MONTANA REGIONAL WEATHER ROUNDUP
NATIONAL WEATHER SERVICE GREAT FALLS MT
1000 AM MDT SUN APR 22 2018

NOTE: "FAIR" INDICATES FEW OR NO CLOUDS BELOW 12000 FEET WITH NO
SIGNIFICANT WEATHER AND/OR OBSTRUCTIONS TO VISIBILITY.

MTZ001>007-043-221700-
WEST OF THE DIVIDE

CITY           SKY/WX    TMP DP  RH WIND       PRES   REMARKS
KALISPELL      FAIR      46  24  42 SE5       30.21S
MISSOULA       FAIR      41  27  57 CALM      30.23S
BUTTE          FAIR      41  23  48 N3        30.18F
MULLAN PASS    FAIR      32  16  51 VRB3      30.18S
ANACONDA         N/A     43  19  39 E5        30.18F
DEER LODGE       N/A     43  21  42 N5        30.21F
HAMILTON         N/A     46  28  49 MISG      30.22F
RONAN            N/A     46  25  42 W6        30.24S
$$

MTZ008-052>055-221700-
SOUTHWEST MONTANA

CITY           SKY/WX    TMP DP  RH WIND       PRES   REMARKS
BOZEMAN        FAIR      45  28  51 CALM      30.16F
DILLON         FAIR      44  28  53 NE8       30.14F
ENNIS          MOSUNNY   45  30  57 N8        30.18F
W YELLOWSTONE  FAIR      45  27  49 CALM      30.16F
THREE FORKS      N/A     48  25  41 CALM      30.14F
$$

MTZ009-010-012-014-046-048-049-054-221700-
EAST SLOPES AND CENTRAL MONTANA

CITY           SKY/WX    TMP DP  RH WIND       PRES   REMARKS
CUT BANK       FAIR      47  17  30 W17       30.14S
GREAT FALLS    FAIR      48  23  37 NW10      30.16F
HELENA         FAIR      50  22  33 W9        30.17F
AUGUSTA        FAIR      44  16  32 W12       30.14F
BOWMANS CRNR   FAIR      46  16  30 W7        30.13F
CHOTEAU          N/A     46  18  31 N5        30.17S
FAIRFIELD      FAIR      46  17  31 W8        30.15S
POWER          FAIR      45  16  31 CALM      30.15F
RAYNESFORD     CLOUDY    48  21  33 W12       30.15S
ULM            FAIR      51  21  31 W13       30.15F
WHITE SULPHUR    N/A     45  21  39 N8        30.14F
$$

MTZ011-013-016-021-045-047-050-051-221700-
NORTH CENTRAL MONTANA

CITY           SKY/WX    TMP DP  RH WIND       PRES   REMARKS
HAVRE          FAIR      52  26  36 SW12      30.15S
LEWISTOWN      CLOUDY    50  23  34 SW16      30.15S
N BAR RANCH    CLOUDY    52  18  25 SW17      30.17F
CHINOOK          N/A     54  25  32 W12       30.14F
GEYSER         PTSUNNY   48  21  34 NW14      30.15S
GRASS RANGE    PTSUNNY   49  20  30 N5        30.12F
STANFORD       CLOUDY    46  23  39 NE9       30.14F
$$

MTZ017>020-022>027-061-062-221700-
NORTHEAST MONTANA

CITY           SKY/WX    TMP DP  RH WIND       PRES   REMARKS
GLASGOW        FAIR      53  29  39 VRB7      30.14S
GLENDIVE       FAIR      57  30  35 SE5       30.16S
JORDAN           N/A     55  26  32 NW12      30.15F
MALTA          SUNNY     54  28  37 W14       30.12F
SIDNEY         FAIR      56  29  35 CALM      30.15S
WOLF POINT     FAIR      55  30  38 W8        30.14F
PLENTYWOOD       N/A     54  30  40 W10       30.11F
POPLAR           N/A     54  28  37 SW7       30.15S
$$

MTZ028>42-056>058-221700-
SOUTHCENTRAL AND SOUTHEAST MONTANA

CITY           SKY/WX    TMP DP  RH WIND       PRES   REMARKS
BAKER          FAIR      55  30  38 NW10      30.16S
BILLINGS       FAIR      54  22  28 E10       30.15F
LIVINGSTON     FAIR      48  29  47 VRB6      30.14F
MILES CITY     FAIR      54  27  35 W6        30.17S
BIG TIMBER     SUNNY     50  23  34 E14       30.16F
EKALAKA          N/A     54  21  27 N5        30.12S
FORSYTH          N/A     54  23  30 CALM      30.17F
HARLOWTON      FAIR      49  25  39 SE8       30.15F
LAUREL           N/A     54  23  30 E14G20    30.16S
$$

REGIONAL REPORTS...DAKOTAS

CITY           SKY/WX    TMP DP  RH WIND       PRES   REMARKS
WILLISTON      FAIR      57  31  37 W7        30.14R
MINOT          FAIR      58  34  40 NW12      30.11R
DICKINSON      FAIR      58  28  32 NE8       30.12R
BEACH          FAIR      55  23  28 VRB5      30.18S
CROSBY         FAIR      55  36  47 W13       30.11S
TIOGA          FAIR      52  32  46 NW7       30.14S
BISMARCK       FAIR      55  38  52 S14       30.16F
GRAND FORKS    FAIR      51  40  65 S22       30.21R
FARGO          FAIR      54  38  54 S13       30.24F
BUFFALO SD       N/A     54  33  45 NE6       30.08S
RAPID CITY     FAIR      53  38  56 CALM      30.16F
$$

REGIONAL REPORTS...WYOMING/IDAHO/WASHINGTON

CITY           SKY/WX    TMP DP  RH WIND       PRES   REMARKS
GILLETTE       FAIR      50  38  63 NE3       30.16F
SHERIDAN       FAIR      54  25  32 E7        30.17F
BUFFALO WY     FAIR      50  24  36 SE7       30.19F
CODY           FAIR      51  26  37 VRB3      30.15F
YELLOWSTONE LA   N/A     39  23  52 SE5       30.24S
IDAHO FALLS    FAIR      56  32  40 S9        30.15S
SALMON         FAIR      45  32  60 VRB5      30.16F
BOISE          FAIR      47  27  45 NW9       30.15S
SPOKANE        FAIR      41  28  60 CALM      30.27S
$$

REGIONAL REPORTS...ALBERTA

CITY           SKY/WX    TMP DP  RH WIND       PRES   REMARKS
CALGARY        MOSUNNY   46   7  19 NW13G21   30.12S
CARDSTON         N/A     45  18  33 W14G20      N/A
EDMONTON       MOSUNNY   41  23  48 W13G29    30.03R
FORT MCMURRAY  CLOUDY    41  37  87 NW14G25   29.83
HIGH LEVEL     PTSUNNY   32  28  86 NW12G17   30.05R WCI  23
LETHBRIDGE     PTSUNNY   50  23  34 W18G25    30.12R
LLOYDMINSTER   PTSUNNY   43  32  65 W29G38    29.90R
MEDICINE HAT   MOSUNNY   50  25  37 VRB2      30.13R
MILK RIVER       N/A     48  19  32 W18         N/A
PEACE RIVER    MOSUNNY   41  27  56 NW12G21   30.08R
PINCHER CREEK  CLOUDY    43  21  42 W16G22    30.13R
WATERTON GATE    N/A     41  18  38 SW13G21     N/A
$$

REGIONAL REPORTS...SASKATCHEWAN

CITY           SKY/WX    TMP DP  RH WIND       PRES   REMARKS
CORONACH         N/A     55  28  35 W9          N/A
CYPRESS HILLS    N/A     41  16  36 E5          N/A
ESTEVAN        MOSUNNY   55  32  41 W15       30.09S
MOOSE JAW        N/A     52  28  40 W18         N/A
PRINCE ALBERT  MOSUNNY   45  34  65 W26G38    29.79R
REGINA         MOSUNNY   50  34  53 W20G26    30.05S
ROCKGLEN         N/A     50  27  40 W9          N/A
SASKATOON      SUNNY     48  30  49 W26       29.94R
SWIFT CURRENT  SUNNY     46  25  42 W15       30.09R
VAL MARIE        N/A     50  27  40 N3          N/A
$$




USA.gov is the U.S. government's official web portal to all federal, state and local government web resources and services.